3 September 2014 Space
GT Aviation logo and link to the homepage
GT Aviation logo and link to the homepage Space
Space

GT Aviation UK - Airfield Weather Information

 

Weather information for EGHH


13 minutes ago, at 04:20 UTC, the wind was blowing at a speed of 0.5 meters per second (1.2 miles per hour) from North in EGHH. The temperature was 10 degrees Celsius (50 degrees Fahrenheit), and the pressure was 1,022 hPa (30.18 inHg). The relative humidity was 100.0%. There were a few clouds at a height of 914 meter (3000 feet) and scattered clouds at a height of 1067 meter (3500 feet). The visibility was >11.3 kilometers (>7 miles).

The METAR this information has been retrieved from is: EGHH 030420Z 01001KT 9999 FEW030 SCT035 10/10 Q1022

Search again?
Enter ICAO code: and show the report in
Don't know the ICAO code of the airport you want weather for?

To see a graphical view of the weather for EGHH, click here to visit SkyLinkWeather

 



GT Aviation UK
PO Box 15, WEYMOUTH DT4 8DS, UK
Email jane@gtaviation.co.uk Web www.gtaviation.co.uk

Use of this website constitutes acceptance of our User Agreement

TYNT INSIGHT technology is in use on this website to monitor text and pictures being copied from it. A record is kept only of the content copied.